UAL712 LEMD-KIAD

Flight info

Callsign UAL712
Flight time N/A
Altitude 30000
Route ZMR N733 DESAT DCT VGO DCT HIDRA/M079F300 DCT 46N020W 48N030W 49N040W 48N050W DCT MUSAK/N0463F300 DCT FROSS DCT KJOHN DCT ALB HYPER9
Aircraft A21N/M-SDE3FGHIRWY/LB1

Departure

Time 2026-05-06 00:48
Airport Adolfo Suárez Madrid–Barajas Airport (LEMD)

Arrival

Time N/A
Airport Washington Dulles International Airport (KIAD)
Time Latitude Longitude Altitude Speed Heading
2026-05-06 00:24 40.46245 -3.56965 1992 ft 0 kts 310°
2026-05-06 00:32 40.46243 -3.56962 1991 ft 2 kts 310°
2026-05-06 00:32 40.46233 -3.56946 1991 ft 2 kts 310°
2026-05-06 00:32 40.46224 -3.56931 1990 ft 2 kts 310°
2026-05-06 00:33 40.46214 -3.56916 1989 ft 2 kts 309°
2026-05-06 00:33 40.46202 -3.56903 1989 ft 2 kts 338°
2026-05-06 00:33 40.46187 -3.56899 1988 ft 2 kts
2026-05-06 00:33 40.46172 -3.56902 1987 ft 2 kts 25°
2026-05-06 00:34 40.46164 -3.56909 1987 ft 0 kts 41°
2026-05-06 00:34 40.46158 -3.56916 1987 ft 0 kts 44°
2026-05-06 00:36 40.46159 -3.56915 1987 ft 0 kts 44°
2026-05-06 00:36 40.46167 -3.56906 1987 ft 2 kts 43°
2026-05-06 00:37 40.46180 -3.56891 1987 ft 2 kts 41°
2026-05-06 00:37 40.46194 -3.56875 1988 ft 2 kts 37°
2026-05-06 00:37 40.46212 -3.56858 1988 ft 4 kts 35°
2026-05-06 00:37 40.46244 -3.56828 1987 ft 6 kts 38°
2026-05-06 00:38 40.46285 -3.56770 1986 ft 10 kts 58°
2026-05-06 00:38 40.46299 -3.56654 1981 ft 15 kts 80°
2026-05-06 00:38 40.46389 -3.56597 1981 ft 15 kts
2026-05-06 00:38 40.46492 -3.56589 1981 ft 15 kts
2026-05-06 00:39 40.46601 -3.56581 1981 ft 15 kts
2026-05-06 00:39 40.46714 -3.56571 1980 ft 16 kts
2026-05-06 00:39 40.46829 -3.56562 1980 ft 16 kts
2026-05-06 00:39 40.46950 -3.56553 1978 ft 17 kts
2026-05-06 00:40 40.47071 -3.56578 1978 ft 17 kts 339°
2026-05-06 00:40 40.47175 -3.56660 1979 ft 16 kts 322°
2026-05-06 00:40 40.47264 -3.56750 1981 ft 15 kts 322°
2026-05-06 00:40 40.47349 -3.56834 1983 ft 14 kts 323°
2026-05-06 00:41 40.47424 -3.56910 1986 ft 12 kts 320°
2026-05-06 00:41 40.47489 -3.56978 1988 ft 11 kts 322°
2026-05-06 00:41 40.47552 -3.57043 1991 ft 11 kts 322°
2026-05-06 00:41 40.47621 -3.57112 1994 ft 13 kts 322°
2026-05-06 00:42 40.47696 -3.57188 1996 ft 13 kts 321°
2026-05-06 00:42 40.47772 -3.57266 1997 ft 14 kts 322°
2026-05-06 00:42 40.47855 -3.57349 1999 ft 15 kts 322°
2026-05-06 00:42 40.47943 -3.57440 2001 ft 16 kts 322°
2026-05-06 00:43 40.48037 -3.57535 2003 ft 16 kts 322°
2026-05-06 00:43 40.48140 -3.57640 2005 ft 21 kts 322°
2026-05-06 00:43 40.48260 -3.57762 2006 ft 21 kts 322°
2026-05-06 00:43 40.48380 -3.57878 2005 ft 21 kts 327°
2026-05-06 00:44 40.48501 -3.57980 2005 ft 20 kts 327°
2026-05-06 00:44 40.48626 -3.58053 2007 ft 19 kts 353°
2026-05-06 00:44 40.48763 -3.58057 2007 ft 19 kts 360°
2026-05-06 00:44 40.48857 -3.57993 2005 ft 17 kts 79°
2026-05-06 00:45 40.48859 -3.57818 1999 ft 20 kts 89°
2026-05-06 00:45 40.48872 -3.57646 1995 ft 17 kts 41°
2026-05-06 00:45 40.48994 -3.57626 1992 ft 18 kts
2026-05-06 00:45 40.49121 -3.57626 1991 ft 15 kts 359°
2026-05-06 00:46 40.49191 -3.57579 1991 ft 12 kts 56°
2026-05-06 00:46 40.49225 -3.57472 1987 ft 12 kts 52°
2026-05-06 00:46 40.49271 -3.57464 1986 ft 0 kts 359°
2026-05-06 00:47 40.49273 -3.57464 1985 ft 3 kts 359°
2026-05-06 00:47 40.49526 -3.57464 1985 ft 71 kts 359°
2026-05-06 00:47 40.50248 -3.57469 1982 ft 132 kts 359°
2026-05-06 00:47 40.51337 -3.57475 1986 ft 182 kts 359°
2026-05-06 00:48 40.52666 -3.57478 2394 ft 193 kts
2026-05-06 00:48 40.54025 -3.57484 3041 ft 198 kts
2026-05-06 00:48 40.55392 -3.57497 3805 ft 198 kts 359°
2026-05-06 00:48 40.56787 -3.57512 4217 ft 206 kts 359°
2026-05-06 00:49 40.58279 -3.57516 4493 ft 221 kts 359°
2026-05-06 00:49 40.59863 -3.57420 4747 ft 235 kts 10°
2026-05-06 00:49 40.61459 -3.56720 5033 ft 248 kts 22°
2026-05-06 00:49 40.63057 -3.55742 5303 ft 262 kts 22°
2026-05-06 00:50 40.64845 -3.55046 5635 ft 272 kts
2026-05-06 00:50 40.66731 -3.55098 6198 ft 272 kts 351°
2026-05-06 00:50 40.68608 -3.55501 6757 ft 274 kts 353°
2026-05-06 00:50 40.70502 -3.55650 7278 ft 277 kts 356°
2026-05-06 00:51 40.72436 -3.55816 7776 ft 280 kts 346°
2026-05-06 00:51 40.74166 -3.56955 8215 ft 280 kts 315°
2026-05-06 00:51 40.75283 -3.59012 8748 ft 279 kts 298°
2026-05-06 00:51 40.76210 -3.61306 9222 ft 283 kts 297°
2026-05-06 00:52 40.77134 -3.63571 9695 ft 286 kts 298°
2026-05-06 00:52 40.78087 -3.65884 10184 ft 287 kts 298°
2026-05-06 00:52 40.79065 -3.68240 10448 ft 298 kts 298°
2026-05-06 00:52 40.80084 -3.70686 10664 ft 309 kts 298°
2026-05-06 00:53 40.81130 -3.73188 10874 ft 320 kts 298°
2026-05-06 00:53 40.82225 -3.75808 11082 ft 331 kts 298°
2026-05-06 00:53 40.83355 -3.78508 11279 ft 342 kts 298°
2026-05-06 00:53 40.84518 -3.81290 11474 ft 352 kts 298°
2026-05-06 00:54 40.85716 -3.84159 11662 ft 362 kts 298°
2026-05-06 00:54 40.86957 -3.87132 11843 ft 372 kts 298°
2026-05-06 00:54 40.88218 -3.90157 12090 ft 379 kts 298°
2026-05-06 00:54 40.89476 -3.93178 12492 ft 381 kts 298°
2026-05-06 00:55 40.90766 -3.96279 12942 ft 382 kts 298°
2026-05-06 00:55 40.92052 -3.99373 13366 ft 383 kts 298°
2026-05-06 00:55 40.93330 -4.02453 13743 ft 385 kts 298°
2026-05-06 00:55 40.94618 -4.05559 14144 ft 387 kts 298°
2026-05-06 00:56 40.95916 -4.08695 14516 ft 389 kts 298°
2026-05-06 00:56 40.97201 -4.11804 14862 ft 391 kts 298°
2026-05-06 00:56 40.98509 -4.14973 15218 ft 393 kts 298°
2026-05-06 00:56 40.99839 -4.18196 15592 ft 394 kts 298°
2026-05-06 00:57 41.01162 -4.21410 15954 ft 395 kts 298°
2026-05-06 00:57 41.02417 -4.24662 16312 ft 396 kts 296°
2026-05-06 00:57 41.03660 -4.27988 16659 ft 397 kts 296°
2026-05-06 00:57 41.04893 -4.31305 16985 ft 399 kts 296°
2026-05-06 00:58 41.06133 -4.34649 17329 ft 399 kts 296°
2026-05-06 00:58 41.07375 -4.37999 17636 ft 401 kts 296°
2026-05-06 00:58 41.08643 -4.41423 17943 ft 402 kts 296°
2026-05-06 00:58 41.09881 -4.44774 18235 ft 404 kts 296°
2026-05-06 00:59 41.11119 -4.48104 18524 ft 405 kts 296°
2026-05-06 00:59 41.12386 -4.51494 18830 ft 405 kts 296°
2026-05-06 00:59 41.13628 -4.54830 19139 ft 405 kts 296°
2026-05-06 00:59 41.14872 -4.58185 19451 ft 405 kts 296°
2026-05-06 01:00 41.16108 -4.61532 19695 ft 406 kts 296°
2026-05-06 01:00 41.17371 -4.64962 19952 ft 408 kts 296°
2026-05-06 01:00 41.18605 -4.68334 20206 ft 409 kts 295°
2026-05-06 01:00 41.19842 -4.71719 20452 ft 410 kts 295°
2026-05-06 01:01 41.21088 -4.75134 20721 ft 410 kts 295°
2026-05-06 01:01 41.22350 -4.78592 20968 ft 411 kts 295°
2026-05-06 01:01 41.23607 -4.82035 21220 ft 412 kts 295°
2026-05-06 01:01 41.24847 -4.85435 21462 ft 412 kts 295°
2026-05-06 01:02 41.26093 -4.88861 21693 ft 413 kts 295°
2026-05-06 01:02 41.27343 -4.92297 21913 ft 414 kts 295°
2026-05-06 01:02 41.28618 -4.95805 22140 ft 414 kts 295°
2026-05-06 01:02 41.29888 -4.99309 22354 ft 415 kts 295°
2026-05-06 01:03 41.31164 -5.02828 22560 ft 416 kts 295°
2026-05-06 01:03 41.32455 -5.06395 22776 ft 416 kts 295°
2026-05-06 01:03 41.33721 -5.09894 22954 ft 417 kts 295°
2026-05-06 01:03 41.34973 -5.13357 23152 ft 417 kts 294°
2026-05-06 01:04 41.36267 -5.16945 23348 ft 418 kts 295°
2026-05-06 01:04 41.37542 -5.20486 23517 ft 419 kts 294°
2026-05-06 01:04 41.38813 -5.24015 23743 ft 418 kts 294°
2026-05-06 01:04 41.40087 -5.27559 24018 ft 417 kts 294°
2026-05-06 01:05 41.41342 -5.31060 24263 ft 415 kts 294°